Tracking 28081 objects as of 27-Sep-2023
HD Live streaming from Space Station
objects crossing your sky now

SL-6 R/B(2)

Track SL-6 R/B(2) now!
10-day predictions


NORAD ID: 12827
Int'l Code: 1981-088F
Perigee: 821.8 km
Apogee: 13,589.2 km
Inclination: 63.0 °
Period: 262.4 minutes
Semi major axis: 13576 km
RCS: 6.5355 m2 (large)
Launch date: September 11, 1981
Source: Commonwealth of Independent States (former USSR) (CIS)
Launch site: PLESETSK MISSILE AND SPACE COMPLEX (PKMTR)

Note: This is a ROCKET BODY
Your satellite tracking list
Your tracking list is empty




NASA's NSSDC Master Catalog

Two Line Element Set (TLE):
1 12827U 81088F   23268.80920764 -.00000051  00000-0 -33944-3 0  9996
2 12827  63.0389 180.1983 4702007 220.4532  93.0218  5.48808809842534
Source of the keplerian elements: AFSPC